Weather History for Litchfield, MN

Change the Weather History Date:

Tuesday, November 8, 2011

  Actual Average Record
Temperature  
Mean Temperature 36 °F -  
Max Temperature 46 °F 45 °F 80 °F (1999)
Min Temperature 26 °F 26 °F 4 °F (1991)
Degree Days  
Heating Degree Days 29    
Moisture  
Dew Point 26 °F    
Average Humidity 74    
Maximum Humidity 100    
Minimum Humidity 34    
Precipitation  
Precipitation 0.00 in - - ()
Sea Level Pressure  
Sea Level Pressure 30.18 in    
Wind  
Wind Speed 1 mph (NNE)    
Max Wind Speed 6 mph    
Max Gust Speed -    
Visibility 10 miles    
Events      
Averages and records for this station are not official NWS values.
T = Trace of Precipitation, MM = Missing Value Source: NWS Daily Summary

Daily Weather History Graph

Daily Weather History Graph

Search for Another Location

Airport:

Trip Planner

Search our weather history database for the weather conditions in past years. The results will help you decide how hot, cold, wet, or windy it might be!

Date:

Astronomy

Nov. 08, 2011 Rise Set
Actual Time 7:06 AM CST 4:56 PM CST
Civil Twilight 6:34 AM CST 5:28 PM CST
Nautical Twilight 5:59 AM CST 6:03 PM CST
Astronomical Twilight 5:25 AM CST 6:37 PM CST
Moon 3:39 PM CST (11/8) 5:02 AM CST (11/8)
Length of Visible Light 10h 53m
Length of Day
9h 50m
Waxing Gibbous, 96% of the Moon is Illuminated
Nov 8
Waxing Gibbous
Nov 10
Full
Nov 18
Last Quarter
Nov 25
New
Dec 2
First Quarter

Hourly Weather History & Observations

Time (CST) Temp. Windchill Dew Point Humidity Pressure Visibility Wind Dir Wind Speed Gust Speed Precip Events Conditions
12:13 AM 33.8 °F - 28.4 °F 81% 30.21 in 10.0 mi Calm Calm - N/A   Clear
12:33 AM 30.2 °F - 26.6 °F 86% 30.21 in 10.0 mi Calm Calm - N/A   Scattered Clouds
12:53 AM 30.2 °F 26.7 °F 26.6 °F 86% 30.20 in 10.0 mi North 3.5 mph - N/A   Mostly Cloudy
1:13 AM 28.4 °F 24.6 °F 26.6 °F 93% 30.20 in 10.0 mi North 3.5 mph - N/A   Mostly Cloudy
1:34 AM 30.2 °F 25.4 °F 26.6 °F 86% 30.20 in 10.0 mi North 4.6 mph - N/A   Mostly Cloudy
1:53 AM 30.2 °F - 26.6 °F 86% 30.20 in 10.0 mi Calm Calm - N/A   Mostly Cloudy
2:04 AM 30.2 °F - 26.6 °F 86% 30.20 in 10.0 mi Calm Calm - N/A   Mostly Cloudy
2:33 AM 30.2 °F - 26.6 °F 86% 30.20 in 10.0 mi Calm Calm - N/A   Mostly Cloudy
3:13 AM 30.2 °F - 26.6 °F 86% 30.19 in 10.0 mi Calm Calm - N/A   Scattered Clouds
3:33 AM 30.2 °F - 26.6 °F 86% 30.19 in 10.0 mi Calm Calm - N/A   Scattered Clouds
4:13 AM 28.4 °F - 26.6 °F 93% 30.20 in 10.0 mi Calm Calm - N/A   Clear
4:33 AM 28.4 °F - 26.6 °F 93% 30.20 in 10.0 mi Calm Calm - N/A   Clear
4:53 AM 26.6 °F - 24.8 °F 93% 30.19 in 10.0 mi Calm Calm - N/A   Clear
5:13 AM 28.4 °F - 26.6 °F 93% 30.19 in 10.0 mi Calm Calm - N/A   Clear
5:33 AM 28.4 °F - 26.6 °F 93% 30.19 in 10.0 mi Calm Calm - N/A   Clear
6:13 AM 28.4 °F - 26.6 °F 93% 30.19 in 10.0 mi Calm Calm - N/A   Clear
6:33 AM 26.6 °F - 26.6 °F 100% 30.17 in 10.0 mi Calm Calm - N/A   Clear
6:53 AM 26.6 °F - 26.6 °F 100% 30.18 in 10.0 mi Calm Calm - N/A   Clear
7:13 AM 26.6 °F 22.6 °F 24.8 °F 93% 30.17 in 10.0 mi NNE 3.5 mph - N/A   Clear
7:33 AM 28.4 °F - 26.6 °F 93% 30.19 in 10.0 mi Calm Calm - N/A   Clear
7:53 AM 28.4 °F - 26.6 °F 93% 30.20 in 10.0 mi Calm Calm - N/A   Clear
8:13 AM 30.2 °F - 28.4 °F 93% 30.21 in 10.0 mi Calm Calm - N/A   Clear
8:33 AM 30.2 °F - 28.4 °F 93% 30.22 in 10.0 mi Calm Calm - N/A   Clear
8:53 AM 30.2 °F - 28.4 °F 93% 30.21 in 10.0 mi Calm Calm - N/A   Clear
9:13 AM 32.0 °F 28.7 °F 28.4 °F 87% 30.21 in 10.0 mi North 3.5 mph - N/A   Mostly Cloudy
9:33 AM 33.8 °F 29.6 °F 30.2 °F 87% 30.21 in 10.0 mi NNE 4.6 mph - N/A   Scattered Clouds
9:53 AM 37.4 °F 33.8 °F 30.2 °F 75% 30.20 in 10.0 mi NE 4.6 mph - N/A   Clear
10:10 AM 37.4 °F 33.8 °F 30.2 °F 75% 30.20 in 10.0 mi NE 4.6 mph - N/A   Clear
1:41 PM 44.6 °F 41.4 °F 21.2 °F 39% 30.16 in 10.0 mi NE 5.8 mph - N/A   Clear
2:20 PM 46.4 °F 45.2 °F 19.4 °F 34% 30.15 in 10.0 mi NNE 3.5 mph - N/A   Clear
2:33 PM 46.4 °F 43.5 °F 19.4 °F 34% 30.15 in 10.0 mi ENE 5.8 mph - N/A   Clear
2:53 PM 46.4 °F 43.5 °F 21.2 °F 37% 30.14 in 10.0 mi NE 5.8 mph - N/A   Clear
3:13 PM 44.6 °F 41.4 °F 19.4 °F 37% 30.15 in 10.0 mi NNE 5.8 mph - N/A   Clear
3:33 PM 44.6 °F 42.2 °F 21.2 °F 39% 30.15 in 10.0 mi NE 4.6 mph - N/A   Clear
3:53 PM 44.6 °F 43.1 °F 21.2 °F 39% 30.15 in 10.0 mi NNE 3.5 mph - N/A   Clear
4:13 PM 44.6 °F 42.2 °F 21.2 °F 39% 30.15 in 10.0 mi NNE 4.6 mph - N/A   Clear
4:33 PM 42.8 °F - 23.0 °F 46% 30.16 in 10.0 mi Calm Calm - N/A   Clear
4:53 PM 42.8 °F 41.1 °F 24.8 °F 49% 30.15 in 10.0 mi NNE 3.5 mph - N/A   Clear
5:13 PM 42.8 °F - 24.8 °F 49% 30.16 in 10.0 mi Calm Calm - N/A   Clear
5:33 PM 41.0 °F - 24.8 °F 53% 30.16 in 10.0 mi Calm Calm - N/A   Clear
5:53 PM 39.2 °F - 24.8 °F 56% 30.16 in 10.0 mi Calm Calm - N/A   Clear
6:14 PM 39.2 °F - 24.8 °F 56% 30.16 in 10.0 mi Calm Calm - N/A   Clear
6:33 PM 37.4 °F - 23.0 °F 56% 30.16 in 10.0 mi Calm Calm - N/A   Clear
6:53 PM 39.2 °F - 21.2 °F 49% 30.17 in 10.0 mi Calm Calm - N/A   Clear
7:33 PM 37.4 °F - 23.0 °F 56% 30.16 in 10.0 mi Calm Calm - N/A   Clear
7:53 PM 35.6 °F - 30.2 °F 81% 30.16 in 10.0 mi Calm Calm - N/A   Clear
8:13 PM 35.6 °F - 32.0 °F 87% 30.16 in 10.0 mi Calm Calm - N/A   Clear
8:33 PM 33.8 °F - 26.6 °F 75% 30.16 in 10.0 mi Calm Calm - N/A   Clear
8:53 PM 33.8 °F - 28.4 °F 81% 30.16 in 10.0 mi Calm Calm - N/A   Clear
9:13 PM 33.8 °F - 26.6 °F 75% 30.16 in 10.0 mi Calm Calm - N/A   Clear
9:33 PM 33.8 °F - 28.4 °F 81% 30.17 in 10.0 mi Calm Calm - N/A   Clear
9:53 PM 33.8 °F - 26.6 °F 75% 30.16 in 10.0 mi Calm Calm - N/A   Clear
10:13 PM 33.8 °F - 28.4 °F 81% 30.16 in 10.0 mi Calm Calm - N/A   Clear
10:34 PM 33.8 °F - 28.4 °F 81% 30.16 in 10.0 mi Calm Calm - N/A   Clear
11:13 PM 33.8 °F - 28.4 °F 81% 30.16 in 10.0 mi Calm Calm - N/A   Clear
11:33 PM 32.0 °F - 28.4 °F 87% 30.16 in 10.0 mi Calm Calm - N/A   Clear
11:53 PM 32.0 °F - 28.4 °F 87% 30.16 in 10.0 mi Calm Calm - N/A   Clear